Weather History for Toledo, OH

Change the Weather History Date:

Saturday, March 10, 2012

  Actual Average Record
Temperature  
Mean Temperature 35 °F 35 °F  
Max Temperature 49 °F 44 °F 72 °F (1925)
Min Temperature 20 °F 26 °F 6 °F (1972)
Degree Days  
Heating Degree Days 30 30  
Month to date heating degree days 265 314  
Since 1 July heating degree days 4283 4890  
Cooling Degree Days 0 0  
Month to date cooling degree days 0 0  
Year to date cooling degree days 0 0  
Moisture  
Dew Point 18 °F    
Average Humidity 56    
Maximum Humidity 77    
Minimum Humidity 34    
Precipitation  
Precipitation 0.00 in 0.07 in 2.02 in (2009)
Month to date precipitation 1.37 0.75  
Year to date precipitation 5.57 4.87  
Snow  
Snow 0.00 in 0.20 in - ()
Month to date snowfall 3.7 2.4  
Since 1 July snowfall 20.8 32.9  
Snow Depth 0.00 in    
Sea Level Pressure  
Sea Level Pressure 30.46 in    
Wind  
Wind Speed 9 mph (SSW)    
Max Wind Speed 21 mph    
Max Gust Speed 26 mph    
Visibility 10 miles    
Events      
T = Trace of Precipitation, MM = Missing Value Source: NWS Daily Summary

Daily Weather History Graph

Daily Weather History Graph

Search for Another Location

Airport:

Trip Planner

Search our weather history database for the weather conditions in past years. The results will help you decide how hot, cold, wet, or windy it might be!

Date:

Astronomy

Mar. 10, 2012 Rise Set
Actual Time 6:54 AM EST 6:36 PM EST
Civil Twilight 6:26 AM EST 7:04 PM EST
Nautical Twilight 5:54 AM EST 7:36 PM EST
Astronomical Twilight 5:22 AM EST 8:09 PM EST
Moon 9:51 PM EST (3/10) 7:46 AM EST (3/10)
Length of Visible Light 12h 37m
Length of Day
11h 42m
Waning Gibbous, 93% of the Moon is Illuminated
Mar 10
Waning Gibbous
Mar 14
Last Quarter
Mar 22
New
Mar 30
First Quarter
Apr 6
Full

Hourly Weather History & Observations

Time (EST) Temp. Windchill Dew Point Humidity Pressure Visibility Wind Dir Wind Speed Gust Speed Precip Events Conditions
12:52 AM 25.0 °F 17.1 °F 16.0 °F 69% 30.55 in 10.0 mi North 6.9 mph - N/A   Clear
1:52 AM 24.1 °F 18.2 °F 12.9 °F 62% 30.55 in 10.0 mi NNE 4.6 mph - N/A   Clear
2:52 AM 21.0 °F - 12.9 °F 71% 30.55 in 10.0 mi Calm Calm - N/A   Clear
3:52 AM 21.9 °F - 12.9 °F 68% 30.55 in 10.0 mi Calm Calm - N/A   Clear
4:52 AM 23.0 °F - 12.0 °F 63% 30.57 in 10.0 mi Calm Calm - N/A   Clear
5:52 AM 21.9 °F - 15.1 °F 75% 30.58 in 10.0 mi Calm Calm - N/A   Clear
6:52 AM 23.0 °F - 16.0 °F 74% 30.58 in 10.0 mi Calm Calm - N/A   Clear
7:52 AM 25.0 °F - 16.0 °F 69% 30.59 in 10.0 mi Calm Calm - N/A   Clear
8:52 AM 28.0 °F 19.3 °F 12.9 °F 53% 30.57 in 10.0 mi SSE 9.2 mph - N/A   Clear
9:52 AM 30.0 °F 21.1 °F 14.0 °F 51% 30.56 in 10.0 mi SSE 10.4 mph 17.3 mph N/A   Clear
10:52 AM 33.1 °F 25.5 °F 16.0 °F 50% 30.53 in 10.0 mi SSE 9.2 mph 17.3 mph N/A   Clear
11:52 AM 36.0 °F 27.5 °F 17.1 °F 46% 30.50 in 10.0 mi SSW 12.7 mph 18.4 mph N/A   Clear
12:52 PM 39.9 °F 32.9 °F 18.0 °F 41% 30.48 in 10.0 mi SSW 11.5 mph 20.7 mph N/A   Clear
1:52 PM 43.0 °F 36.4 °F 19.0 °F 38% 30.44 in 10.0 mi SSW 12.7 mph 20.7 mph N/A   Clear
2:52 PM 46.9 °F - 19.0 °F 33% 30.42 in 10.0 mi SW 16.1 mph 21.9 mph N/A   Clear
3:52 PM 46.9 °F - 19.0 °F 33% 30.39 in 10.0 mi SSW 19.6 mph - N/A   Clear
4:52 PM 48.0 °F - 21.0 °F 34% 30.37 in 10.0 mi SSW 15.0 mph 23.0 mph N/A   Clear
5:52 PM 48.9 °F - 21.9 °F 35% 30.35 in 10.0 mi SSW 15.0 mph 24.2 mph N/A   Clear
6:52 PM 46.4 °F 41.5 °F 24.8 °F 43% 30.32 in 10.0 mi SSW 10.4 mph 18.4 mph N/A   Clear
7:52 PM 45.0 °F 40.6 °F 24.1 °F 44% 30.32 in 10.0 mi South 8.1 mph - N/A   Clear
8:52 PM 45.0 °F 39.3 °F 25.0 °F 46% 30.32 in 10.0 mi SSW 11.5 mph - N/A   Clear
9:52 PM 44.1 °F 37.4 °F 24.1 °F 45% 30.32 in 10.0 mi SSW 13.8 mph - N/A   Clear
10:52 PM 42.1 °F 35.2 °F 24.1 °F 49% 30.31 in 10.0 mi SSW 12.7 mph - N/A   Clear
11:52 PM 42.1 °F 36.1 °F 23.0 °F 47% 30.31 in 10.0 mi SSW 10.4 mph - N/A   Clear